sat.trackr.live / text

‹ back to catalog

STARLINK-35735

NORAD 66231 · 2025-244AB

PAYLOAD ACTIVE UNKNOWN

§ Identity

Operator
Country
US
Launch date
2025-10-28
Launch site
AFWTR
Launch vehicle
Mass (kg)
RCS (m²)

Purposes: comms

External: N2YO · Heavens-Above · Gunter

§ Orbital elements

Epoch: 2026-05-24T23:40:04.783872Z

Period
94.11 min
Inclination
53.1588°
Eccentricity
0.0001214
Mean motion
15.30204805 rev/d
Perigee alt
474.4 km
Apogee alt
476.0 km
Semi-major
6,853.3 km
B*
7.4985e-4
RAAN
235.3152°
Arg perigee
87.5013°
Mean anomaly
272.6127°
Rev number
3,334

§ Raw data

STARLINK-357351 66231U 25244AB  26144.98616648  .00021918  00000+0  74985-3 0  99962 66231  53.1588 235.3152 0001214  87.5013 272.6127 15.30204805 33341

JSON: /api/v1/satellites/66231 · /tle

For live sub-satellite position, see the globe view (requires WebGL).

§ Visibility from observer

Set your observer location to see the next 7 days of passes ≥ 10°. The values pass through the URL so the page stays shareable.

No JS? Fill the form by hand. The geolocation button needs JavaScript.